Back to catalog

CZ-6A DEB

AliveSSO
NORAD 56284·DEBRIS·🇨🇳 China

Launched Nov 11, 2022 from Taiyuan Satellite Launch Center

Loading…

Next Passes (next 24 hours)

TLE

FreshSource: Space-Track

Epoch: Sep 14, 2026, 14:00 UTC

1 56284U 22151ADC 26257.58334863  .00003710  00000-0  75602-3 0  9992
2 56284  98.5156 296.4541 0131748  45.6385 315.5516 14.56257996182907

Track CZ-6A DEB in real time with AllMySat

Download on the App Store